When you browse on this site, cookies collect data to enhance your experience and personalize the content and advertising you see.
Visit our Privacy Policy to learn more. By continuing to use the site, you agree to this use of cookies and data.
  • In Hungary
  • List of Countries
  • For 7 days
  • Water Temperature
  • Weather Map
  • News
  • Weather Widgets
  • user-avatar
    Login

    Hourly Weather Yukon

    Today, 10 December, Tuesday

    Time Temperature Precipitation Wind Pressure Humidity
    00:00 -2°C° 0 mm 4 mps 730 mmHg 40%
    01:00 -1°C° 0 mm 3 mps 730 mmHg 41%
    02:00 -1°C° 0 mm 2 mps 730 mmHg 42%
    03:00 -1°C° 0 mm 2 mps 730 mmHg 42%
    04:00 -1°C° 0 mm 2 mps 731 mmHg 43%
    05:00 -1°C° 0 mm 2 mps 731 mmHg 43%
    06:00 -1°C° 0 mm 2 mps 731 mmHg 42%
    07:00 -1°C° 0 mm 2 mps 732 mmHg 40%
    08:00 +1°C° 0 mm 2 mps 733 mmHg 39%
    09:00 +2°C° 0 mm 2 mps 733 mmHg 36%
    10:00 +5°C° 0 mm 1 mps 734 mmHg 34%
    11:00 +6°C° 0 mm 1 mps 734 mmHg 32%
    12:00 +7°C° 0 mm 1 mps 734 mmHg 31%
    13:00 +8°C° 0 mm 1 mps 733 mmHg 31%
    14:00 +9°C° 0 mm 1 mps 733 mmHg 31%
    15:00 +7°C° 0 mm 1 mps 733 mmHg 34%
    16:00 +6°C° 0 mm 1 mps 733 mmHg 38%
    17:00 +4°C° 0 mm 2 mps 734 mmHg 41%
    18:00 +3°C° 0 mm 2 mps 734 mmHg 42%
    19:00 +3°C° 0 mm 2 mps 734 mmHg 43%
    20:00 +2°C° 0 mm 2 mps 734 mmHg 44%
    21:00 +1°C° 0 mm 3 mps 734 mmHg 46%
    22:00 +1°C° 0 mm 3 mps 735 mmHg 48%
    23:00 0°C° 0 mm 3 mps 735 mmHg 49%

    Tomorrow, 11 December, Wednesday

    Time Temperature Precipitation Wind Pressure Humidity
    00:00 -1°C° 0 mm 4 mps 735 mmHg 50%
    01:00 -1°C° 0 mm 4 mps 734 mmHg 51%
    02:00 -1°C° 0 mm 4 mps 734 mmHg 52%
    03:00 -2°C° 0 mm 4 mps 734 mmHg 53%
    04:00 -2°C° 0 mm 4 mps 734 mmHg 53%
    05:00 -2°C° 0 mm 4 mps 734 mmHg 54%
    06:00 -1°C° 0 mm 5 mps 735 mmHg 52%
    07:00 -1°C° 0 mm 6 mps 735 mmHg 50%
    08:00 +1°C° 0 mm 6 mps 735 mmHg 48%
    09:00 +3°C° 0 mm 7 mps 735 mmHg 46%
    10:00 +5°C° 0 mm 7 mps 735 mmHg 44%
    11:00 +8°C° 0 mm 7 mps 735 mmHg 41%
    12:00 +8°C° 0 mm 7 mps 734 mmHg 41%
    13:00 +7°C° 0 mm 8 mps 734 mmHg 42%
    14:00 +9°C° 0 mm 8 mps 733 mmHg 42%
    15:00 +8°C° 0 mm 7 mps 733 mmHg 45%
    16:00 +6°C° 0 mm 7 mps 732 mmHg 48%
    17:00 +4°C° 0 mm 7 mps 732 mmHg 52%
    18:00 +4°C° 0 mm 7 mps 732 mmHg 52%
    19:00 +4°C° 0 mm 8 mps 732 mmHg 53%
    20:00 +2°C° 0 mm 9 mps 731 mmHg 53%
    21:00 +2°C° 0 mm 9 mps 731 mmHg 53%
    22:00 +2°C° 0 mm 9 mps 731 mmHg 53%
    23:00 +2°C° 0 mm 9 mps 731 mmHg 54%

    Day after tomorrow, 12 December, Thursday

    Time Temperature Precipitation Wind Pressure Humidity
    00:00 +2°C° 0 mm 8 mps 731 mmHg 55%
    01:00 +2°C° 0 mm 8 mps 731 mmHg 56%
    02:00 +1°C° 0 mm 8 mps 730 mmHg 57%
    03:00 +1°C° 0 mm 8 mps 730 mmHg 59%
    04:00 +1°C° 0 mm 8 mps 730 mmHg 61%
    05:00 +1°C° 0 mm 9 mps 730 mmHg 63%
    06:00 +1°C° 0 mm 8 mps 730 mmHg 63%
    07:00 +2°C° 0 mm 8 mps 730 mmHg 63%
    08:00 +2°C° 0 mm 8 mps 730 mmHg 64%
    09:00 +4°C° 0 mm 8 mps 730 mmHg 60%
    10:00 +6°C° 0 mm 7 mps 730 mmHg 56%
    11:00 +9°C° 0 mm 7 mps 729 mmHg 52%
    12:00 +9°C° 0 mm 6 mps 729 mmHg 53%
    13:00 +10°C° 0 mm 5 mps 728 mmHg 53%
    14:00 +11°C° 0 mm 4 mps 727 mmHg 54%
    15:00 +10°C° 0 mm 4 mps 727 mmHg 60%
    16:00 +8°C° 0 mm 3 mps 727 mmHg 65%
    17:00 +7°C° 0 mm 3 mps 727 mmHg 71%
    18:00 +7°C° 0 mm 3 mps 727 mmHg 73%
    19:00 +5°C° 0 mm 3 mps 727 mmHg 74%
    20:00 +5°C° 0 mm 3 mps 727 mmHg 76%
    21:00 +5°C° 0 mm 3 mps 727 mmHg 77%
    22:00 +4°C° 0 mm 3 mps 726 mmHg 78%
    23:00 +4°C° 0 mm 3 mps 726 mmHg 80%

    13 December, Friday

    Time Temperature Precipitation Wind Pressure Humidity
    00:00 +4°C° 0 mm 3 mps 726 mmHg 82%
    01:00 +4°C° 0 mm 3 mps 725 mmHg 83%
    02:00 +4°C° 0 mm 3 mps 725 mmHg 85%
    03:00 +4°C° 0 mm 2 mps 725 mmHg 86%
    04:00 +4°C° 0 mm 2 mps 724 mmHg 87%
    05:00 +4°C° 0 mm 2 mps 724 mmHg 88%
    06:00 +5°C° 0 mm 2 mps 724 mmHg 85%
    07:00 +6°C° 0 mm 1 mps 724 mmHg 81%
    08:00 +7°C° 0 mm 1 mps 724 mmHg 78%
    09:00 +9°C° 0 mm 1 mps 724 mmHg 71%
    10:00 +11°C° 0 mm 1 mps 724 mmHg 64%
    11:00 +13°C° 0 mm 2 mps 724 mmHg 57%
    12:00 +14°C° 0 mm 2 mps 723 mmHg 55%
    13:00 +14°C° 0 mm 2 mps 722 mmHg 52%
    14:00 +15°C° 0 mm 2 mps 722 mmHg 49%
    15:00 +14°C° 0 mm 2 mps 722 mmHg 54%
    16:00 +12°C° 0 mm 2 mps 723 mmHg 59%
    17:00 +10°C° 0 mm 2 mps 723 mmHg 64%
    18:00 +9°C° 0 mm 2 mps 723 mmHg 55%
    19:00 +9°C° 0 mm 2 mps 723 mmHg 46%
    20:00 +9°C° 0 mm 3 mps 724 mmHg 37%
    21:00 +8°C° 0 mm 3 mps 724 mmHg 34%
    22:00 +8°C° 0 mm 3 mps 723 mmHg 31%
    23:00 +7°C° 0 mm 2 mps 723 mmHg 27%

    14 December, Saturday

    Time Temperature Precipitation Wind Pressure Humidity
    00:00 +7°C° 0 mm 3 mps 723 mmHg 28%
    01:00 +5°C° 0 mm 3 mps 723 mmHg 28%
    02:00 +4°C° 0 mm 3 mps 723 mmHg 28%
    03:00 +4°C° 0 mm 3 mps 723 mmHg 29%
    04:00 +5°C° 0 mm 2 mps 723 mmHg 31%
    05:00 +4°C° 0 mm 2 mps 723 mmHg 33%
    06:00 +6°C° 0 mm 1 mps 723 mmHg 33%
    07:00 +7°C° 0 mm 1 mps 724 mmHg 34%
    08:00 +6°C° 0 mm 0 mps 724 mmHg 35%
    09:00 +9°C° 0 mm 1 mps 723 mmHg 33%
    10:00 +10°C° 0 mm 2 mps 723 mmHg 31%
    11:00 +12°C° 0 mm 3 mps 723 mmHg 29%
    12:00 +12°C° 0 mm 4 mps 722 mmHg 30%
    13:00 +13°C° 0 mm 5 mps 721 mmHg 31%
    14:00 +13°C° 0 mm 6 mps 720 mmHg 32%
    15:00 +12°C° 0 mm 5 mps 720 mmHg 37%
    16:00 +9°C° 0 mm 5 mps 719 mmHg 43%
    17:00 +7°C° 0 mm 4 mps 719 mmHg 48%
    18:00 +7°C° 0 mm 5 mps 719 mmHg 52%
    19:00 +7°C° 0 mm 5 mps 718 mmHg 56%
    20:00 +7°C° 0 mm 6 mps 718 mmHg 60%
    21:00 +7°C° 0 mm 6 mps 717 mmHg 64%
    22:00 +7°C° 0 mm 6 mps 717 mmHg 68%
    23:00 +5°C° 0 mm 6 mps 716 mmHg 72%

    15 December, Sunday

    Time Temperature Precipitation Wind Pressure Humidity
    00:00 +6°C° 0 mm 4 mps 716 mmHg 78%
    01:00 +7°C° 0 mm 3 mps 716 mmHg 85%
    02:00 +6°C° 0 mm 2 mps 716 mmHg 91%
    03:00 +5°C° 0 mm 3 mps 716 mmHg 88%
    04:00 +4°C° 0 mm 4 mps 717 mmHg 85%
    05:00 +3°C° 0 mm 6 mps 717 mmHg 82%
    06:00 +2°C° 0 mm 6 mps 719 mmHg 76%
    07:00 +2°C° 0 mm 6 mps 720 mmHg 69%
    08:00 +1°C° 0 mm 6 mps 721 mmHg 63%
    09:00 +2°C° 0 mm 6 mps 721 mmHg 61%
    10:00 +2°C° 0 mm 7 mps 722 mmHg 59%
    11:00 +3°C° 0 mm 7 mps 723 mmHg 57%
    12:00 +3°C° 0 mm 7 mps 723 mmHg 59%
    13:00 +4°C° 0 mm 7 mps 723 mmHg 62%
    14:00 +4°C° 0 mm 7 mps 723 mmHg 65%
    15:00 +3°C° 0 mm 7 mps 724 mmHg 67%
    16:00 +3°C° 0 mm 6 mps 724 mmHg 69%
    17:00 +2°C° 0 mm 6 mps 725 mmHg 72%
    18:00 +1°C° 0 mm 6 mps 726 mmHg 73%
    19:00 -1°C° 0 mm 6 mps 726 mmHg 74%
    20:00 -2°C° 0 mm 6 mps 727 mmHg 75%
    21:00 -2°C° 0 mm 6 mps 727 mmHg 75%
    22:00 -3°C° 0 mm 6 mps 727 mmHg 76%
    23:00 -3°C° 0 mm 6 mps 727 mmHg 76%
    Show more